EDT,Max TemperatureF,Mean TemperatureF,Min TemperatureF,Max Dew PointF,MeanDew PointF,Min DewpointF,Max Humidity, Mean Humidity, Min Humidity, Max Sea Level PressureIn, Mean Sea Level PressureIn, Min Sea Level PressureIn, Max VisibilityMiles, Mean VisibilityMiles, Min VisibilityMiles, Max Wind SpeedMPH, Mean Wind SpeedMPH, Max Gust SpeedMPH,PrecipitationIn, CloudCover, Events, WindDirDegrees
2013-9-1,82,78,73,74,71,70,96,86,67,29.88,29.84,29.80,10,7,0,9,2,,0.82,5,Fog-Rain,161
2013-9-2,79,74,71,73,71,69,100,91,74,29.82,29.79,29.74,10,5,1,6,0,,0.04,6,Rain,290
2013-9-3,81,72,63,70,63,54,100,79,43,29.93,29.80,29.74,10,8,1,10,3,,0.30,4,Rain,340
2013-9-4,80,70,60,59,56,50,90,65,42,30.04,29.98,29.92,10,10,10,9,3,,0.00,0,,269
2013-9-5,75,67,57,58,51,41,84,60,30,30.19,30.04,29.96,10,10,10,12,3,18,0.00,1,,314
2013-9-6,70,60,50,48,43,39,83,59,36,30.29,30.23,30.17,10,10,10,5,2,,0.00,0,,42
2013-9-7,78,62,48,52,48,44,90,59,33,30.17,30.05,29.93,10,10,10,9,1,,0.00,1,,223
2013-9-8,80,70,59,62,53,44,78,58,36,30.11,29.93,29.86,10,10,10,12,3,22,0.00,2,Rain,318
2013-9-9,71,60,48,57,49,44,86,64,41,30.27,30.21,30.13,10,10,10,8,3,,0.00,2,,150
2013-9-10,86,75,66,71,66,57,87,76,61,30.18,30.14,30.07,10,9,6,9,3,,0.00,5,,234
2013-9-11,93,82,73,75,72,70,87,72,55,30.14,30.07,30.00,8,6,3,7,3,,0.00,0,,215
2013-9-12,84,76,68,75,69,64,100,84,65,29.99,29.81,29.70,10,5,0,22,4,41,1.90,5,Fog-Rain,259
2013-9-13,75,65,57,67,58,47,96,74,51,29.89,29.74,29.68,10,9,6,10,3,22,0.03,3,Rain,315
2013-9-14,64,57,50,46,44,42,83,64,52,30.17,30.03,29.90,10,10,10,15,6,18,0.00,2,,312
2013-9-15,70,58,45,52,45,40,90,67,36,30.25,30.18,30.12,10,10,10,8,1,,0.00,0,,234
2013-9-16,72,63,55,56,51,46,90,71,47,30.28,30.13,30.06,10,10,4,10,2,20,0.02,5,Rain,351
2013-9-17,64,55,46,45,39,35,83,59,37,30.47,30.39,30.29,10,10,10,9,5,17,0.00,1,,44
2013-9-18,70,56,42,49,44,39,93,68,36,30.39,30.30,30.22,10,10,10,8,1,,0.00,0,,210
2013-9-19,75,60,45,51,48,42,93,68,37,30.22,30.16,30.10,10,10,10,5,1,,0.00,0,,265
2013-9-20,79,64,50,57,53,47,93,71,40,30.12,30.07,30.01,10,10,8,9,1,,0.00,0,,170
2013-9-21,78,64,51,66,59,49,94,81,45,30.04,29.85,29.67,10,7,1,12,2,22,0.61,5,Rain,211
2013-9-22,66,60,53,63,51,38,100,72,45,29.95,29.78,29.68,10,8,2,16,6,23,0.25,5,Rain,318
2013-9-23,64,54,45,44,40,38,82,59,43,30.08,30.02,29.95,10,10,10,12,5,21,0.00,1,,318
2013-9-24,73,56,41,46,42,38,93,63,33,30.09,30.01,29.91,10,10,10,10,2,,0.00,0,,289
2013-9-25,72,58,44,50,46,41,93,68,40,30.00,29.96,29.91,10,10,10,4,0,,0.00,0,,320
2013-9-26,70,60,50,56,52,47,94,77,55,30.14,30.04,29.98,10,10,10,9,2,,0.00,6,,68
2013-9-27,68,58,50,52,50,47,89,72,54,30.30,30.23,30.14,10,10,10,9,2,,0.00,5,,65
2013-9-28,72,62,52,53,50,48,90,70,44,30.36,30.31,30.27,10,10,10,7,2,17,0.00,2,,87
2013-9-29,71,59,48,54,51,47,93,76,49,30.27,30.19,30.11,10,10,10,7,1,,0.00,2,,94
2013-9-30,73,60,46,52,49,45,93,76,44,30.12,30.07,30.00,10,9,0,6,0,,0.00,1,Fog,313